Time,TemperatureF,DewpointF,PressureIn,WindDirection,WindDirectionDegrees,WindSpeedMPH,WindSpeedGustMPH,Humidity,HourlyPrecipIn,Conditions,Clouds,dailyrainin,SoftwareType,DateUTC
2015-05-29 00:00:00,52.2,38.3,29.91,SSW,208,5.0,9.0,59,0.00,SCT,,0.00,WeatherDisplay:10.37,2015-05-28 23:00:00,
2015-05-29 00:10:00,52.2,38.7,29.91,SW,218,2.0,6.0,60,0.00,SCT,,0.00,WeatherDisplay:10.37,2015-05-28 23:10:00,
2015-05-29 00:18:00,52.2,38.7,29.91,SW,229,2.0,6.0,60,0.00,SCT,,0.00,WeatherDisplay:10.37,2015-05-28 23:18:00,
2015-05-29 00:30:00,52.0,38.9,29.91,SSW,202,7.0,7.0,61,0.00,SCT,,0.00,WeatherDisplay:10.37,2015-05-28 23:30:00,
2015-05-29 00:40:00,51.8,38.8,29.91,SSW,199,5.0,8.0,61,0.00,SCT,,0.00,WeatherDisplay:10.37,2015-05-28 23:40:00,
2015-05-29 00:50:00,51.6,39.0,29.88,WSW,238,3.0,5.0,62,0.00,SCT,,0.00,WeatherDisplay:10.37,2015-05-28 23:50:00,
2015-05-29 01:00:00,51.6,39.0,29.88,SW,216,3.0,7.0,62,0.00,SCT,,0.00,WeatherDisplay:10.37,2015-05-29 00:00:00,
2015-05-29 01:10:00,51.3,39.1,29.88,SSW,206,1.0,6.0,63,0.00,SCT,,0.00,WeatherDisplay:10.37,2015-05-29 00:10:00,
2015-05-29 01:20:00,51.3,39.1,29.88,WSW,250,0.0,5.0,63,0.00,SCT,,0.00,WeatherDisplay:10.37,2015-05-29 00:20:00,
2015-05-29 01:30:00,50.9,39.1,29.88,SSW,212,7.0,7.0,64,0.00,SCT,,0.00,WeatherDisplay:10.37,2015-05-29 00:30:00,
2015-05-29 01:40:00,50.7,39.0,29.88,SSW,213,5.0,7.0,64,0.00,SCT,,0.00,WeatherDisplay:10.37,2015-05-29 00:40:00,
2015-05-29 01:50:00,50.7,39.0,29.88,SW,226,7.0,8.0,64,0.00,SCT,,0.00,WeatherDisplay:10.37,2015-05-29 00:50:00,
2015-05-29 02:00:00,50.2,38.9,29.85,SSW,205,3.0,6.0,65,0.00,SCT,,0.00,WeatherDisplay:10.37,2015-05-29 01:00:00,
2015-05-29 02:10:00,50.0,38.7,29.85,SW,214,7.0,8.0,65,0.00,SCT,,0.00,WeatherDisplay:10.37,2015-05-29 01:10:00,
2015-05-29 02:20:00,50.0,39.1,29.85,SSW,203,3.0,8.0,66,0.00,SCT,,0.00,WeatherDisplay:10.37,2015-05-29 01:20:00,
2015-05-29 02:30:00,49.8,38.9,29.85,SW,222,5.0,8.0,66,0.00,SCT,,0.00,WeatherDisplay:10.37,2015-05-29 01:30:00,
2015-05-29 02:40:00,49.8,39.3,29.85,SW,215,3.0,6.0,67,0.00,SCT,,0.00,WeatherDisplay:10.37,2015-05-29 01:40:00,
2015-05-29 02:50:00,49.8,39.3,29.85,SW,215,3.0,5.0,67,0.00,SCT,,0.00,WeatherDisplay:10.37,2015-05-29 01:50:00,
2015-05-29 03:00:00,49.6,39.1,29.85,SW,223,3.0,5.0,67,0.00,SCT,,0.00,WeatherDisplay:10.37,2015-05-29 02:00:00,
2015-05-29 03:10:00,49.3,39.2,29.85,SSW,201,6.0,7.0,68,0.00,SCT,,0.00,WeatherDisplay:10.37,2015-05-29 02:10:00,
2015-05-29 03:20:00,49.3,39.2,29.85,SSW,206,2.0,8.0,68,0.00,SCT,,0.00,WeatherDisplay:10.37,2015-05-29 02:20:00,
2015-05-29 03:30:00,49.0,39.3,29.83,South,185,2.0,6.0,69,0.00,SCT,,0.00,WeatherDisplay:10.37,2015-05-29 02:30:00,
2015-05-29 03:40:00,49.1,39.4,29.83,SSW,192,5.0,7.0,69,0.00,SCT,,0.00,WeatherDisplay:10.37,2015-05-29 02:40:00,
2015-05-29 03:50:00,48.9,39.2,29.83,South,187,0.0,6.0,69,0.00,SCT,,0.00,WeatherDisplay:10.37,2015-05-29 02:50:00,
2015-05-29 04:00:00,48.7,39.4,29.83,SSW,195,5.0,5.0,70,0.00,SCT,,0.00,WeatherDisplay:10.37,2015-05-29 03:00:00,
2015-05-29 04:10:00,48.6,39.2,29.83,SSW,204,1.0,5.0,70,0.00,SCT,,0.00,WeatherDisplay:10.37,2015-05-29 03:10:00,
2015-05-29 04:20:00,48.4,39.4,29.83,SW,233,3.0,7.0,71,0.00,SCT,,0.00,WeatherDisplay:10.37,2015-05-29 03:20:00,
2015-05-29 04:30:00,48.2,39.6,29.83,South,190,3.0,7.0,72,0.00,SCT,,0.00,WeatherDisplay:10.37,2015-05-29 03:30:00,
2015-05-29 04:40:00,48.2,39.9,29.83,SW,220,3.0,5.0,73,0.00,SCT,,0.00,WeatherDisplay:10.37,2015-05-29 03:40:00,
2015-05-29 04:50:00,48.0,39.8,29.80,South,185,1.0,7.0,73,0.00,SCT,,0.00,WeatherDisplay:10.37,2015-05-29 03:50:00,
2015-05-29 05:00:00,47.9,40.4,29.80,SSW,196,5.0,9.0,75,0.00,SCT,,0.00,WeatherDisplay:10.37,2015-05-29 04:00:00,
2015-05-29 05:10:00,47.8,40.3,29.80,SSW,195,5.0,5.0,75,0.00,SCT,,0.00,WeatherDisplay:10.37,2015-05-29 04:10:00,
2015-05-29 05:20:00,47.7,40.1,29.80,SSW,206,3.0,6.0,75,0.00,SCT,,0.00,WeatherDisplay:10.37,2015-05-29 04:20:00,
2015-05-29 05:30:00,47.8,40.3,29.80,South,188,0.0,4.0,75,0.00,SCT,,0.00,WeatherDisplay:10.37,2015-05-29 04:30:00,
2015-05-29 05:40:00,47.8,40.3,29.80,SSW,205,5.0,6.0,75,0.00,SCT,,0.00,WeatherDisplay:10.37,2015-05-29 04:40:00,
2015-05-29 05:50:00,47.8,40.3,29.80,SSW,192,5.0,7.0,75,0.00,SCT,,0.00,WeatherDisplay:10.37,2015-05-29 04:50:00,
2015-05-29 06:00:00,47.8,40.3,29.80,South,185,2.0,7.0,75,0.00,SCT,,0.00,WeatherDisplay:10.37,2015-05-29 05:00:00,
2015-05-29 06:10:00,47.8,40.3,29.80,SSW,201,5.0,9.0,75,0.00,SCT,,0.00,WeatherDisplay:10.37,2015-05-29 05:10:00,
2015-05-29 06:20:00,48.0,40.5,29.80,SSW,210,5.0,7.0,75,0.00,SCT,,0.00,WeatherDisplay:10.37,2015-05-29 05:20:00,
2015-05-29 06:30:00,47.8,41.0,29.77,SSW,198,3.0,9.0,77,0.00,SCT,,0.00,WeatherDisplay:10.37,2015-05-29 05:30:00,
2015-05-29 06:40:00,47.8,41.3,29.77,SSW,208,7.0,7.0,78,0.00,SCT,,0.00,WeatherDisplay:10.37,2015-05-29 05:40:00,
2015-05-29 06:50:00,47.8,41.6,29.77,SSW,211,9.0,9.0,79,0.00,SCT,,0.00,WeatherDisplay:10.37,2015-05-29 05:50:00,
2015-05-29 07:00:00,47.7,41.9,29.77,SSW,209,3.0,9.0,80,0.00,SCT,,0.00,WeatherDisplay:10.37,2015-05-29 06:00:00,
2015-05-29 07:10:00,47.8,42.0,29.77,South,185,8.0,8.0,80,0.00,SCT,,0.00,WeatherDisplay:10.37,2015-05-29 06:10:00,
2015-05-29 07:20:00,48.4,42.5,29.77,SSW,196,6.0,9.0,80,0.00,SCT,,0.00,WeatherDisplay:10.37,2015-05-29 06:20:00,
2015-05-29 07:30:00,48.6,42.3,29.77,SSW,195,7.0,9.0,79,0.00,SCT,,0.00,WeatherDisplay:10.37,2015-05-29 06:30:00,
2015-05-29 07:40:00,48.7,42.5,29.77,SSW,204,7.0,12.0,79,0.00,SCT,,0.00,WeatherDisplay:10.37,2015-05-29 06:40:00,
2015-05-29 07:50:00,48.7,42.5,29.77,SSW,204,8.0,9.0,79,0.00,SCT,,0.00,WeatherDisplay:10.37,2015-05-29 06:50:00,
2015-05-29 08:00:00,48.7,42.2,29.74,South,169,3.0,9.0,78,0.00,SCT,,0.00,WeatherDisplay:10.37,2015-05-29 07:00:00,